Hourly Data Report for June 14, 2020

BORDEN AWOS
ONTARIO
Current Station Operator: DND

44°16'20.000" N
79°54'42.000" W
222.50 m
611B002
71534
YBN

Download Data

Hourly Data (June 2020)
Hourly Data Report for June 14, 2020
TIME
LST
Temp Definition
°C
Dew Point Definition
°C
Rel Hum Definition
%
Precip. Amount Definition
mm

Wind Dir Definition
10's deg

Wind Spd Definition
km/h
Visibility Definition
km
Stn Press Definition
kPa
Hmdx Definition


Wind Chill Definition


Weather Definition


00:00 3.8 2.7 93     0 14.5 100.19     LegendNANA
01:00 3.0 2.3 95   15 4 14.5 100.22     LegendNANA
02:00 2.0 1.3 95   21 4 14.5 100.25     LegendNANA
03:00 1.9 1.6 98     0 14.5 100.29     LegendNANA
04:00 1.2 0.7 97     0 12.9 100.32     LegendNANA
05:00
06:00 5.3 4.9 97     0 14.5 100.44     LegendNANA
07:00 9.1 6.0 81   1 4 14.5 100.47     LegendNANA
08:00 13.5 6.7 63   12 6 14.5 100.51     LegendNANA
09:00 15.8 4.3 46   10 9 14.5 100.50     LegendNANA
10:00 17.0 3.9 42   6 17 14.5 100.49     LegendNANA
11:00 18.0 3.3 38   4 19 14.5 100.47     LegendNANA
12:00 17.8 3.6 39   7 20 14.5 100.42     LegendNANA
13:00 18.1 2.2 35   10 17 14.5 100.39     LegendNANA
14:00 18.6 2.2 33   9 15 14.5 100.31     LegendNANA
15:00 19.6 3.2 34   11 22 14.5 100.30     LegendNANA
16:00 19.8 2.7 32   9 20 14.5 100.27     LegendNANA
17:00 19.7 3.0 33   7 11 14.5 100.23     LegendNANA
18:00 19.6 4.2 36   10 13 14.5 100.23     LegendNANA
19:00 17.4 5.3 45   16 19 14.5 100.26     LegendNANA
20:00 14.2 4.4 52     0 14.5 100.31     LegendNANA
21:00 9.4 5.4 76     0 14.5 100.35     LegendNANA
22:00 6.8 4.7 87     0 14.5 100.39     LegendNANA
23:00 6.0 4.3 89     0 14.5 100.39     LegendNANA

Notes on Data Quality.

Legend

  • E = Estimated
  • M = Missing
  • NA = Not Available*
  • [empty] = Indicates an unobserved value
Date modified: